[TLELIST] Archives

 

[TLELIST] Current TLEs

December 11th 2025 PDT

0 HST 1 20580U 90037B 25345.22461499 .00013114 00000-0 45771-3 0 9997 2 20580 28.4689 282.8025 0001816 220.1397 139.9064 15.28018696759763 0 ISS (ZARYA) 1 25544U 98067A 25345.18672918 .00016503 00000-0 30174-3 0 9994 2 25544 51.6309 150.1691 0003334 234.1557 125.9122 15.49499993542611 0 CXO 1 25867U 99040B 25343.97594738 .00000473 00000-0 00000-0 0 9993 2 25867 53.0333 122.5432 8145103 310.8822 0.4254 0.37805522 16602 ...Continue Reading

[TLELIST] Current TLEs

December 10th 2025 PDT

0 HST 1 20580U 90037B 25344.17960443 .00010729 00000-0 37347-3 0 9992 2 20580 28.4692 289.9149 0001836 207.5620 152.4878 15.27993349759604 0 ISS (ZARYA) 1 25544U 98067A 25344.15480881 .00014837 00000-0 27248-3 0 9992 2 25544 51.6306 155.2782 0003395 228.7876 131.2820 15.49465664542450 0 CXO 1 25867U 99040B 25343.97594738 .00000473 00000-0 00000-0 0 9993 2 25867 53.0333 122.5432 8145103 310.8822 0.4254 0.37805522 16602 ...Continue Reading

[TLELIST] Current TLEs

December 9th 2025 PDT

0 HST 1 20580U 90037B 25343.19989290 .00010184 00000-0 35435-3 0 9995 2 20580 28.4695 296.5825 0001856 196.3317 163.7219 15.27973320759456 0 ISS (ZARYA) 1 25544U 98067A 25343.18736383 .00013707 00000-0 25261-3 0 9993 2 25544 51.6308 160.0685 0003366 223.6321 136.4401 15.49438460542305 0 CXO 1 25867U 99040B 25343.97594738 .00000473 00000-0 00000-0 0 9993 2 25867 53.0333 122.5432 8145103 310.8822 0.4254 0.37805522 16602 ...Continue Reading

[TLELIST] Current TLEs

December 9th 2025 PDT

0 HST 1 20580U 90037B 25343.19989290 .00010184 00000-0 35435-3 0 9995 2 20580 28.4695 296.5825 0001856 196.3317 163.7219 15.27973320759456 0 ISS (ZARYA) 1 25544U 98067A 25343.18736383 .00013707 00000-0 25261-3 0 9993 2 25544 51.6308 160.0685 0003366 223.6321 136.4401 15.49438460542305 0 CXO 1 25867U 99040B 25343.97594738 .00000473 00000-0 00000-0 0 9993 2 25867 53.0333 122.5432 8145103 310.8822 0.4254 0.37805522 16602 ...Continue Reading

[TLELIST] Current TLEs

December 8th 2025 PDT

0 HST 1 20580U 90037B 25342.28548427 .00010003 00000-0 34811-3 0 9994 2 20580 28.4697 302.8053 0001895 185.8337 174.2236 15.27955239759310 0 ISS (ZARYA) 1 25544U 98067A 25342.21990231 .00011911 00000-0 22082-3 0 9993 2 25544 51.6305 164.8582 0003432 219.3069 140.7671 15.49412336542159 0 CXO 1 25867U 99040B 25343.97594738 .00000473 00000-0 00000-0 0 9993 2 25867 53.0333 122.5432 8145103 310.8822 0.4254 0.37805522 16602 ...Continue Reading

[TLELIST] Current TLEs

December 7th 2025 PDT

0 HST 1 20580U 90037B 25340.32599986 .00011592 00000-0 40507-3 0 9996 2 20580 28.4701 316.1394 0001970 164.3543 195.7113 15.27913744759011 0 ISS (ZARYA) 1 25544U 98067A 25340.86543100 .00013750 00000-0 25394-3 0 9993 2 25544 51.6304 171.5636 0003497 213.1314 146.9456 15.49374779541942 0 CXO 1 25867U 99040B 25341.32747404 .00000528 00000-0 00000+0 0 9990 2 25867 52.9844 122.6350 8152013 310.8652 359.9323 0.37803920 16593 ...Continue Reading

[TLELIST] Current TLEs

December 6th 2025 PDT

0 HST 1 20580U 90037B 25340.26068270 .00012412 00000-0 43423-3 0 9998 2 20580 28.4702 316.5837 0001972 163.5928 196.4731 15.27913314759004 0 ISS (ZARYA) 1 25544U 98067A 25340.02693099 .00014013 00000-0 25886-3 0 9993 2 25544 51.6296 175.7148 0003615 210.2448 149.8333 15.49350538541813 0 CXO 1 25867U 99040B 25341.32747404 .00000528 00000-0 00000+0 0 9990 2 25867 52.9844 122.6350 8152013 310.8652 359.9323 0.37803920 16593 ...Continue Reading

[TLELIST] Current TLEs

December 4th 2025 PDT

0 HST 1 20580U 90037B 25338.30113914 .00015652 00000-0 55018-3 0 9998 2 20580 28.4702 329.9177 0002049 143.2197 216.8539 15.27866357758701 0 ISS (ZARYA) 1 25544U 98067A 25338.09188027 .00015824 00000-0 29177-3 0 9995 2 25544 51.6302 185.2932 0003628 200.9086 159.1754 15.49293095541518 0 CXO 1 25867U 99040B 25338.68200842 .00000554 00000-0 00000-0 0 9995 2 25867 52.9229 122.7525 8158420 310.8200 359.9020 0.37807060 16595 ...Continue Reading

[TLELIST] Current TLEs

December 3rd 2025 PDT

0 HST 1 20580U 90037B 25337.32134242 .00010177 00000-0 35555-3 0 9997 2 20580 28.4702 336.5846 0002084 133.3570 226.7199 15.27838155758552 0 ISS (ZARYA) 1 25544U 98067A 25337.05982217 .00011670 00000-0 21765-3 0 9993 2 25544 51.6309 190.4017 0003620 198.7080 161.3776 15.49262423541359 0 CXO 1 25867U 99040B 25338.68200842 .00000554 00000-0 00000-0 0 9995 2 25867 52.9229 122.7525 8158420 310.8200 359.9020 0.37807060 16595 ...Continue Reading

[TLELIST] Current TLEs

December 3rd 2025 PDT

0 HST 1 20580U 90037B 25337.32134242 .00010177 00000-0 35555-3 0 9997 2 20580 28.4702 336.5846 0002084 133.3570 226.7199 15.27838155758552 0 ISS (ZARYA) 1 25544U 98067A 25337.05982217 .00011670 00000-0 21765-3 0 9993 2 25544 51.6309 190.4017 0003620 198.7080 161.3776 15.49262423541359 0 CXO 1 25867U 99040B 25338.68200842 .00000554 00000-0 00000-0 0 9995 2 25867 52.9229 122.7525 8158420 310.8200 359.9020 0.37807060 16595 ...Continue Reading
  • This mailing list is a public mailing list - anyone may join or leave, at any time.
  • This mailing list is announce-only.

International Space Station (ISS) / Hubble Space Telescope (HST) / Chandra X-Ray Observatory Orbital Data via EMAIL

Privacy Policy:

Private list